STARLINK-1788, 46689

Orbit data source: Space-Track

STARLINK-1788, 46689 is a payload satellite owned by SpaceX/Seattle (US) in LEO that was launched on Sun, 18 Oct 2020 UTC via an FALCON 9 launch vehicle from the Air Force Eastern Test Range (AFETR). Payload-class satellites include a variety of spacecraft equipped with specific instruments for various scientific and technological missions. These include communications satellites like Starlink; space stations such as the ISS; scientific satellites like the Hubble; Earth observation satellites from companies like Planet Labs, Umbra, and HawkEye 360; GPS; miniature CubeSats for education and research; and military/defense satellites.

Loading next visibility...
Identifier
46689, 2020-073V
Orbit
LEO
Country
Flag of USUS
Related business
Manufacturer
SpaceX/Seattle
Mission
Partially operational Commercial Communications
Bus & Motor
STARLINK, Unknown motor
Mass
260 kg wet, ~248 kg dry
Launch date (UTC)
2020-10-18 (5 years ago)
Launch vehicle
FALCON 9
Launch site
Air Force Eastern Test Range (AFETR)
Object type
Payload
Rocket body
Debris
Shape & HBR
Box + 1 Pan, 10.1 m
Radar Cross Section
13.562 m², Large (>1 m²)

Expand to show TLE details & history
Last TLE update: 14 hours ago

TLE from 14 hours ago
0 STARLINK-1788
1 46689U 20073V   26107.15933253  .00066285  00000-0  52897-3 0  9993
2 46689  53.0409  29.1759 0004395 119.4584 240.6872 15.70532562304734
Epoch: 2026-04-17T03:49Z
TLE epoch observation values (Epoch: 2026-04-17T03:49:26.330Z)
Latitude
Longitude
126.51967°
Altitude
359.726 km
Speed
7.694 km/s
True Right ascension
01h 56m 42s
True Declination
0° 00' 00"
Sunlit
Object was in daylight at epoch
Visualization orbit readout
Latitude
Unknown
Longitude
Unknown
Altitude
Unknown
Speed
Unknown
Apparent Right ascension
Unknown
Apparent Declination
Unknown
Sunlit
N/A
Visualization observer readout
Local Sidereal Time
00:41:49
Azimuth
Unknown
Elevation
Unknown
Doppler factor
Unknown
Orbital elements
Apogee altitude
360.615 km
Perigee altitude
354.694 km
Semi-major axis
6,735.791 km
Eccentricity
0.00044
Inclination
53.0409°
RAAN
29.1759°
Arg. of periapsis
119.4584°
True anomaly
240.6433°
Mean anomaly
240.6872°
Eccentric anomaly
240.66525°
Mean motion
3.92609 °/min
Orbital period
91.69 mins
BSTAR
0.00052897
Loading maneuver chart data...
Computing Atmospheric mass density...
Loading historical data...
Loading historical data...
Loading historical data...
Loading historical data...
Loading historical data...
Loading historical data...
Loading historical data...

Documentation

Showing up to 5 results
|